Location: Newark
(51.2625°N, 13.3939°E)
Time: 13:57:43
(UTC+00:00)

Transit 2A Rocket - Pass Details

Date: 29 November 2019
Orbit: 594 x 909 km, 66.7° (Epoch: 15 December)

Event Time Altitude Azimuth Distance (km) Brightness Sun altitude
Rises 17:14:05 0° 172° (S) 3,010 8.1 -19.6°
Reaches altitude 10° 17:17:02 10° 154° (SSE) 2,048 7.1 -20.0°
Enters shadow 17:17:29 12° 150° (SSE) 1,928 6.9 -20.1°
